Regional Weather Roundup
Issued by NWS Midland/Odessa, TX

Skip options and go directly to product.
Home | Oldest Version | Previous Version | Current Version | All | Text Only | Save Text | Print | Product List | Glossary On

Skip product version selection by date and time.   
840
ASUS44 KMAF 020310
RWRMAF
MIDLAND AREA WEATHER ROUNDUP
NATIONAL WEATHER SERVICE MIDLAND TX
1000 PM CDT WED JUL 01 2015

...IN SOUTHWEST TEXAS AND SOUTHEAST NEW MEXICO...

CITY           SKY/WX    TMP DP  RH WIND       PRES   REMARKS
ALPINE         CLEAR     76  59  54 SE12      30.12R
ANDREWS        FAIR      79  62  55 SE13      30.01S
ARTESIA        CLEAR     86  59  39 SE15      29.97S
BIG SPRING     CLEAR     80  63  55 SE7       30.02R
CARLSBAD       CLEAR     86  59  39 SE10      29.95R
DRYDEN           N/A     81  65  58 SE10G17   29.97R
FORT STOCKTON  CLEAR     79  63  57 SE13G23   30.00R
GUAD PASS      CLEAR     78  53  41 NE16      30.13R
HOBBS          CLEAR     77  57  50 SE9       30.02S
MARFA          PTCLDY   N/A N/A N/A E14       30.11R
MIDLAND AIRPK  CLEAR     82  62  51 S9        30.00S
MIDLAND INTL   CLEAR     79  64  60 SE12      30.00R
ODESSA         CLEAR     80  62  54 S12       30.01R
PECOS          CLEAR     84  60  43 SE18      29.93R
PRESIDIO       FAIR      91  54  28 MISG      29.92R
SEMINOLE       CLEAR     78  59  50 SE9       30.02R
SNYDER         CLEAR     77  66  68 S7        30.00R
WINK           CLEAR     84  61  45 SE17G23   29.96R
$$
...OTHER STATIONS IN TEXAS...

CITY           SKY/WX    TMP DP  RH WIND       PRES   REMARKS
ABILENE        CLEAR     81  65  58 S10       29.96S
AMARILLO       PTCLDY    81  56  42 S13       29.97R
AUSTIN         PTCLDY    74  71  91 S8        30.02R
BROWNSVILLE    CLEAR     74  68  81 E8        30.01R
CORPUS CHRISTI CLOUDY    76  72  87 SE7       30.02R
DALLAS FTW     PTCLDY    84  70  62 S12       29.93R
DEL RIO        CLOUDY    80  70  71 E13       29.97R
EL PASO        PTCLDY    91  47  21 E6        29.96R
HOUSTON INT    MOCLDY    74  73  97 S5        30.05R
LUBBOCK        PTCLDY    81  61  50 S16       29.99S
SAN ANGELO     CLEAR     80  66  62 S8        29.98R
SAN ANTONIO    MOCLDY    77  69  76 S9        30.03R
WACO           PTCLDY    79  68  69 S15       29.99R
WICHITA FALLS  NOT AVBL
$$
...OTHER LOCATIONS IN NEW MEXICO...

CITY           SKY/WX    TMP DP  RH WIND       PRES   REMARKS
ALAMAGORDO     PTCLDY    84  45  24 SW5       29.99R
ALBUQUERQUE    MOCLDY    90  45  21 E8        30.05R
CANNON AFB     CLEAR     79  54  42 S8        30.02R
CLOVIS         CLEAR     79  54  41 S9          N/A
HOLLOMAN AFB   PTCLDY    88  44  21 SW5       29.96R
ROSWELL        CLEAR     84  54  35 SE10      29.96S
RUIDOSO        CLEAR     70  45  40 SE8       30.24R
SANTA FE       CLOUDY    78  48  34 N20G36    30.19R THUNDER
TRUTH OR CONSE CLEAR     88  42  20 S5        30.01R
TUCUMCARI      PTCLDY    85  44  23 S9        29.96R
$$

USA.gov is the U.S. government's official web portal to all federal, state and local government web resources and services.